W8AGT Weather Reports


Display with metric or nautical units.
time (UTC)temp
F
wind
direction
speed
MPH
gust
MPH
rain 1hr
in
rain 24hr
in
rain mn
in
humidity
%
barometer
mb
20191014140921 43 0.0 1.0 0.00 0.01 0.00 83 1015.6
20191014135921 42 0.0 0.0 0.00 0.01 0.00 85 1015.5
20191014134920 41 0.0 0.0 0.00 0.01 0.00 88 1015.3
20191014133919 40 0.0 0.0 0.00 0.01 0.00 90 1015.2
20191014132919 39 0.0 0.0 0.00 0.01 0.00 91 1015.0
20191014131919 38 0.0 0.0 0.00 0.01 0.00 92 1014.9
20191014130920 38 0.0 0.0 0.00 0.01 0.00 92 1014.7
20191014125920 37 0.0 0.0 0.00 0.01 0.00 92 1014.6
20191014124920 37 0.0 0.0 0.00 0.01 0.00 92 1014.4
20191014123919 37 0.0 0.0 0.00 0.01 0.00 92 1014.1
20191014122920 37 0.0 0.0 0.00 0.01 0.00 91 1013.9
20191014121921 37 0.0 0.0 0.00 0.01 0.00 91 1013.8
20191014120920 37 0.0 0.0 0.00 0.01 0.00 90 1013.6
20191014115920 38 0.0 0.0 0.00 0.01 0.00 90 1013.5
20191014114919 38 0.0 0.0 0.00 0.01 0.00 89 1013.4
20191014113919 38 0.0 0.0 0.00 0.01 0.00 89 1013.3
20191014112919 39 0.0 0.0 0.00 0.01 0.00 88 1013.3
20191014111919 39 0.0 0.0 0.00 0.01 0.00 88 1013.2
20191014110928 40 0.0 0.0 0.00 0.01 0.00 87 1013.1
20191014105919 40 0.0 0.0 0.00 0.01 0.00 88 1013.1
20191014104919 40 0.0 0.0 0.00 0.01 0.00 88 1013.0
20191014103919 41 0.0 0.0 0.00 0.01 0.00 89 1013.0
20191014102920 41 0.0 0.0 0.00 0.01 0.00 89 1012.9
20191014101919 41 0.0 0.0 0.00 0.01 0.00 89 1012.8
20191014100919 41 0.0 0.0 0.00 0.01 0.00 89 1012.6
20191014095919 41 0.0 0.0 0.00 0.01 0.00 89 1012.5
20191014094930 41 0.0 0.0 0.00 0.01 0.00 89 1012.5
20191014093920 41 0.0 0.0 0.00 0.01 0.00 88 1012.4
20191014092919 41 0.0 0.0 0.00 0.01 0.00 88 1012.4
20191014091919 41 0.0 0.0 0.00 0.01 0.00 88 1012.3
20191014090919 41 0.0 0.0 0.00 0.01 0.00 88 1012.2
20191014085919 41 0.0 0.0 0.00 0.01 0.00 89 1012.1
20191014084919 41 0.0 0.0 0.00 0.01 0.00 89 1011.9
20191014083930 41 0.0 0.0 0.00 0.01 0.00 88 1011.7
20191014082920 41 0.0 0.0 0.00 0.01 0.00 88 1011.7
20191014081921 41 0.0 0.0 0.00 0.01 0.00 88 1011.5
20191014080922 41 0.0 0.0 0.00 0.01 0.00 88 1011.5
20191014075919 41 0.0 0.0 0.00 0.01 0.00 88 1011.3
20191014074919 41 0.0 0.0 0.00 0.01 0.00 88 1011.4
20191014073919 41 0.0 0.0 0.00 0.01 0.00 88 1011.4
20191014072919 41 0.0 0.0 0.00 0.01 0.00 87 1011.4
20191014071919 41 0.0 0.0 0.00 0.01 0.00 86 1011.5
20191014070920 41 0.0 0.0 0.00 0.01 0.00 87 1011.4
20191014065921 41 0.0 0.0 0.00 0.01 0.00 86 1011.3
20191014064920 41 0.0 0.0 0.00 0.01 0.00 86 1011.2
20191014063921 41 0.0 0.0 0.00 0.01 0.00 85 1011.2
20191014062921 41 0.0 0.0 0.00 0.01 0.00 85 1011.1
20191014061921 41 0.0 0.0 0.00 0.01 0.00 85 1011.2
20191014060932 41 0.0 0.0 0.00 0.01 0.00 85 1011.1
20191014055928 41 0.0 0.0 0.00 0.01 0.00 85 1010.9
20191014054919 41 0.0 0.0 0.00 0.01 0.00 85 1010.9
20191014053921 41 0.0 0.0 0.00 0.01 0.00 85 1010.8
20191014052920 40 0.0 0.0 0.00 0.01 0.00 85 1010.8
20191014051920 40 0.0 0.0 0.00 0.01 0.00 85 1010.7
20191014050923 40 0.0 1.0 0.00 0.01 0.00 85 1010.8
20191014045920 40 0.0 0.0 0.00 0.01 0.00 85 1010.8
20191014044920 41 0.0 0.0 0.00 0.01 0.00 84 1010.7
20191014043919 41 0.0 0.0 0.00 0.01 0.00 84 1010.8
20191014042920 41 0.0 0.0 0.00 0.01 0.00 82 1010.8
20191014041921 41 0.0 1.0 0.00 0.01 0.00 81 1010.8
20191014040920 42 0.0 0.0 0.00 0.01 0.00 80 1010.9
20191014035919 42 293 1.0 3.0 0.00 0.01 0.01 80 1010.8
20191014034921 42 0.0 0.0 0.00 0.01 0.01 81 1011.0
20191014033920 42 0.0 0.0 0.00 0.01 0.01 81 1010.9
20191014032919 42 0.0 0.0 0.00 0.01 0.01 82 1010.9
20191014031920 42 0.0 0.0 0.00 0.01 0.01 82 1010.9
20191014030920 42 315 1.0 4.0 0.00 0.01 0.01 83 1010.8
20191014025919 42 0.0 1.0 0.00 0.01 0.01 83 1010.7
20191014024919 42 338 1.0 4.0 0.00 0.01 0.01 83 1010.6
20191014023919 42 0.0 0.0 0.00 0.01 0.01 82 1010.6
20191014022919 42 0.0 0.0 0.00 0.01 0.01 83 1010.5
20191014021920 42 0.0 0.0 0.00 0.01 0.01 84 1010.4
20191014020919 42 0.0 1.0 0.00 0.01 0.01 84 1010.4
20191014015923 42 0.0 0.0 0.00 0.01 0.01 85 1010.4
20191014014919 42 338 1.0 2.0 0.00 0.01 0.01 85 1010.2
20191014013929 42 315 1.0 3.0 0.00 0.01 0.01 86 1010.2
20191014012928 42 0.0 1.0 0.00 0.01 0.01 85 1010.2
20191014011919 42 0.0 1.0 0.00 0.01 0.01 85 1010.1
20191014010919 43 0.0 0.0 0.01 0.01 0.01 84 1010.0
20191014005919 43 0.0 0.0 0.01 0.01 0.01 83 1010.0
20191014004930 43 0.0 1.0 0.01 0.01 0.01 83 1010.0
20191014003919 43 0.0 0.0 0.01 0.01 0.01 83 1009.9
20191014002919 43 0.0 1.0 0.01 0.01 0.01 83 1009.9
20191014001919 43 0.0 2.0 0.01 0.01 0.01 84 1009.8
20191014000921 43 0.0 0.0 0.00 0.00 0.00 84 1009.7
20191013235919 43 0.0 0.0 0.00 0.00 0.00 84 1009.6
20191013234919 43 293 1.0 3.0 0.00 0.00 0.00 83 1009.4
20191013233919 43 0.0 2.0 0.00 0.00 0.00 85 1009.4
20191013232920 43 0.0 0.0 0.00 0.00 0.00 86 1009.4
20191013231921 43 0.0 0.0 0.00 0.00 0.00 87 1009.4
20191013230920 43 0.0 0.0 0.00 0.00 0.00 87 1009.2
20191013225919 43 0.0 0.0 0.00 0.00 0.00 87 1009.1
20191013224919 43 0.0 0.0 0.00 0.00 0.00 86 1009.2
20191013223921 43 0.0 0.0 0.00 0.00 0.00 86 1009.0
20191013222920 43 0.0 0.0 0.00 0.00 0.00 86 1008.9
20191013221919 43 0.0 2.0 0.00 0.00 0.00 85 1009.0
20191013220919 43 0.0 0.0 0.00 0.00 0.00 85 1009.0
20191013215919 43 0.0 0.0 0.00 0.00 0.00 84 1008.8
20191013214921 43 0.0 0.0 0.00 0.00 0.00 84 1008.8
20191013213919 43 0.0 1.0 0.00 0.00 0.00 83 1008.7
20191013212919 44 0.0 0.0 0.00 0.00 0.00 82 1008.8
20191013211919 44 0.0 1.0 0.00 0.00 0.00 81 1008.8
20191013210919 44 293 1.0 3.0 0.00 0.00 0.00 81 1008.7
20191013205921 44 270 2.0 7.0 0.00 0.00 0.00 80 1008.5
20191013204920 44 203 2.0 5.0 0.00 0.00 0.00 79 1008.5
20191013203921 44 203 3.0 10.0 0.00 0.00 0.00 80 1008.3
20191013202919 44 293 1.0 2.0 0.00 0.00 0.00 79 1008.1
20191013201919 44 203 3.0 7.0 0.00 0.00 0.00 79 1008.1
20191013200919 44 0.0 2.0 0.00 0.00 0.00 79 1008.1
20191013195920 44 225 2.0 4.0 0.00 0.00 0.00 78 1008.0
20191013194921 45 225 1.0 2.0 0.00 0.00 0.00 78 1008.0
20191013193920 45 0.0 2.0 0.00 0.00 0.00 77 1007.8
20191013192921 45 203 1.0 2.0 0.00 0.00 0.00 77 1007.7
20191013191921 45 180 1.0 2.0 0.00 0.00 0.00 76 1007.6
20191013190920 45 225 2.0 4.0 0.00 0.00 0.00 76 1007.5
20191013185920 45 225 2.0 5.0 0.00 0.00 0.00 75 1007.6
20191013184920 45 225 3.0 8.0 0.00 0.00 0.00 74 1007.5
20191013183920 45 225 2.0 4.0 0.00 0.00 0.00 74 1007.4
20191013182920 45 180 4.0 8.0 0.00 0.00 0.00 72 1007.5
20191013181921 45 203 3.0 6.0 0.00 0.00 0.00 74 1007.5
20191013180921 45 203 2.0 4.0 0.00 0.00 0.00 73 1007.5
20191013175920 46 225 3.0 5.0 0.00 0.00 0.00 73 1007.6
20191013174921 46 203 4.0 7.0 0.00 0.00 0.00 74 1007.5